Погода в Череповеце

Погода в Череповеце : погода сейчас, прогноз погоды и архив. Всё, что Вы хотите узнать о погоде в Череповеце!

Хотите узнать прогноз погоды в Череповеце? Тогда Вам сюда: Погода в Череповеце

Поиск расширенной информации на нашем сайте:

Другие новости

Новости СМИ2

Главная страница сайта

Новости сайта

03.07.2017

Напоминаем, что на нашем специализированном сайте Метеоцентр.Азия вы можете получить высокодетализированные автоматические прогнозы погоды по пунктам России, СНГ и мира в авиационном формате (включающие направление и скорость ветра, видимость, явления погоды, количество и форму облачности, нижнюю и верхнюю границу облачности).

Рекомендуем: Flowers City доставка цветов в шляпных коробках.

Погода в Череповеце - сегодня

Время (UTC), дата Ветер
(°,м/с) 
Видим.   Явления Облачность Т
(°С)
Тd
(°С)
f(%) Тe
(°С)
Pmin
(гПа)
dP
(гПа)
Po
(мм)
O2
(г/м3)
Тmin Tmax R s Состояние
почвы
18 17.11.17 210 (ЮЗ) 5{11}  3100 м  слаб. ливневой снег  10/10 150 м кучево-дожд. 
[Cb calv]
+0.6 -0.5 92 -2  1009  -2.5  746  300           
21 17.11.17 230 (ЮЗ) 10 км  слаб. ливневой снег  10/10 180 м кучево-дожд. 
[Cb calv]
+1.3 +0.2 92 -1  1008  -1  745  299           
00 18.11.17 240 (ЮЗ) 10 км  {ливн. осадки}  10/10 270 м 
[Sc]
+2.2 +1.1 92 1008  0.1  745  298           
03 18.11.17 240 (ЮЗ) 10 км    10/10 450 м кучево-дожд. 
[Cb calv]
+2.3 +0.4 87 1008.3  0.3  745  298  +0.4       
06 18.11.17 240 (ЮЗ) 10 км  в посл. час ливневой дождь  10/8 570 м кучево-дожд., средняя 
[Cb calv|Ac trans]
+2.5 -0.2 82 1008.6  0.3  746  298           
09 18.11.17 240 (ЮЗ) 10 км    10/8 400 м кучево-дожд., средняя 
[Cb calv|Ac trans]
+2.6 +0.7 87 1009.8  1.2  746  298           
12 18.11.17 240 (ЮЗ) 10 км    10/8 540 м кучево-дожд., средняя 
[Cb calv|Ac trans]
+3 +0.3 82 +1  1009.5  -0.3  746  297           
15 18.11.17 230 (ЮЗ) 10 км  в посл. час ливневой дождь  10/8 800 м кучево-дожд., средняя 
[Cb calv|Ac trans]
+3 -0.5 78 +1  1010.2  0.7  747  298    +3.3  0.0     
18 18.11.17 240 (ЮЗ) 7-10{11}  10 км  {ливн. осадки}  10/10 870 м 
[Sc]
+1.8 -2.6 73 -2  1010.4  0.2  747  299           
21 18.11.17 220 (ЮЗ) 5{10}  10 км    10/10 930 м 
[Sc]
+1.4 -3.1 72 -1  1010.4  -0.1  747  300           
00 19.11.17 200 (Ю) 10 км    10/10 1000 м 
[Sc]
+1 -2.9 75 -2  1010.2  -0.2  747  300           
03 19.11.17 210 (ЮЗ) 10 км  слаб. снег  10/10 700 м 
[Sc]
+0.7 -2.9 77 -2  1009.8  -0.4  746  300  +0.7    0.0     
06 19.11.17 170 (Ю) 10 км  {снег}  8/4 600 м средняя, верхняя 
[Sc|Ac trans|Ci fib]
-0.9 -3.4 83 -2  1010.3  0.4  747  302  -1.1         
09 19.11.17 180 (Ю) 10 км    8/4 600 м средняя, верхняя 
[Sc|Ac trans|Ci fib]
+0.2 -2.8 80 -1  1010.3  0.1  747  301           
12 19.11.17 130 (ЮВ) 10 км    10/6 1000 м средняя 
[Sc|Ac trans]
+0.6 -2.3 81 -1  1009.5  -0.8  746  300           
15 19.11.17 100 (В) 6000 м  слаб. ливневой снег  10/10 210 м кучево-дожд. 
[Cb calv]
-0.1 -1.6 90 -2  1008.7  -0.8  746  301    +1.5  0.0     
18 19.11.17 130 (ЮВ) 2100 м    10/10 120 м кучево-дожд. 
[Cb calv]
-0.2 -0.8 96 -2  1007.7  -1  745  300           
21 19.11.17 130 (ЮВ) 2100 м  слаб. ливневой снег  10/10 100 м кучево-дожд. 
[Cb calv]
+0 -0.6 96 -1  1006.9  -0.7  744  300           
00 20.11.17 120 (ЮВ) 2200 м  слаб. ливневой снег  10/10 100 м кучево-дожд. 
[Cb calv]
+0 -0.6 96 -1  1005.5  -1.4  743  299           
03 20.11.17 130 (ЮВ) 2600 м  снег{ливн. осадки}  10/10 100 м 
[Frnb|Ns]
+0 -0.6 96 -1  1004.3  -1.2  742  299  -0.2    равномерный
мокрый или
старый снег
100% 
06 20.11.17 210 (ЮЗ) 1700 м  сильн. снег{ливн. осадки}  10/10 60 м 
[Frnb|Ns]
+0 -0.3 98 -1  1004.1  -0.2  742  299           
09 20.11.17 240 (ЮЗ) 10 км  в посл. час снег [диам. отлож. мокр. снега 26 мм]  10/8 240 м средняя 
[Frnb|As op]
+0.5 -0.9 90 -2  1006.6  2.5  744  299           
12 20.11.17 240 (ЮЗ) 10 км  слаб. крупа{снег} [диам. отлож. мокр. снега 26 мм]  10/8 210 м кучево-дожд., средняя 
[Cb calv|Ac trans]
+0.4 -0.7 92 -2  1008.8  2.1  746  300           
15 20.11.17 240 (ЮЗ) 10 км  слаб. ливневой снег  10/8 210 м кучево-дожд., средняя 
[Cb calv|Ac trans]
+0.5 -0.9 90 -1  1010.7  1.9  747  301    +0.5     
18 20.11.17 190 (Ю) 10 км  {ливн. осадки}  10/10 600 м 
[Sc]
-0.2 -1.4 92 -1  1011.3  0.6  747  302           
Время (UTC), дата Ветер
(°,м/с) 
Видим.   Явления Облачность Т
(°С)
Тd
(°С)
f(%) Тe
(°С)
Pmin
(гПа)
dP
(гПа)
Po
(мм)
O2
(г/м3)
Тmin Tmax R s Состояние
почвы

Для получения пояснительной информации подведите курсор к названию столбца.

ПОГОДА в Череповеце - архив

Всё, что Вы хотите узнать о погоде в Череповеце - удобно и подробно!

Выберите нужную дату (начиная с 1 января 2015* года) и нажмите кнопку "Найти".
Будут отображены архивные сводки погоды по пункту Череповец, начиная с указанной даты.


Отображать данные в формате CSV (для использования в таблицах Excel)


Внимание! Наш архив погоды предназначен исключительно для личного некоммерческого использования в познавательных целях. Если Вам необходимы официальные справки о состоянии погоды (для производственных, юридических, коммерческих и т.п. целей), обращайтесь в органы Росгидромета.

*Примечание: данная дата относится к архиву по метеостанциям СССР (Россия, СНГ, Балтия).
Архив по метеостанциям Зарубежной Европы и Азии (кроме Китая) хранится 10 дней, по другим регионам земного шара (Китай, Африка, Америка, Австралия, Океания) - 1 день.

Череповец - район местоположения метеостанции


Название, широта, долгота, высота метеостанции:
Череповец 59.2°ш. 38°д. 114 м над ур. моря [Российская Федерация]

Дополнительная информация

В oтличие oт бoльшинства пoгoдных сайтoв мы публикуем пoдрoбную метеoинфoрмацию в детальнoм прoфессиoнальнoм фoрмате.

Характеристики температуры и влажнoсти вoздуха измеряются на высoте 2 м в тени вдали oт зданий и деревьев.
Скoрoсть ветра измеряется на высoте 10 м (на урoвне рoста челoвека скoрoсть ветра ниже в 1.5-2 раза). Если метеoстанция нахoдится в гoрoде или в лесу, тo скoрoсть ветра занижена на 2-4 м/с пo сравнению с oткрытым местoм. Скoрoсть ветра над акватoриями крупных рек и oзёр, а также на вершинах хoлмoв на 2-5 м/с выше, чем в oбычных услoвиях.
Атмoсфернoе давление в разных тoчках местнoсти мoжет значительнo oтличаться oт давления на метеoстанции, в зависимoсти oт услoвий рельефа (при пoдъёме на 10 м давление пoнижается примернo на 1 мм рт.ст.).